Regional Weather Roundup
Issued by NWS

Home | Current Version | Previous Version | Graphics & Text | Print | Product List | Glossary On
Versions: 1 2 3 4 5 6 7 8 9 10 11 12 13 14 15 16 17 18 19 20 21 22 23 24 25 26 27 28 29 30 31 32 33 34 35 36 37 38 39 40 41 42 43 44 45 46 47 48 49 50
000
ASUS43 KFSD 302010
RWRSD

WEATHER ROUNDUP FOR SOUTH DAKOTA
NATIONAL WEATHER SERVICE SIOUX FALLS SD
300 PM CDT TUE JUN 30 2015

NOTE: "FAIR" INDICATES FEW OR NO CLOUDS BELOW 12,000 FEET WITH NO
SIGNIFICANT WEATHER AND/OR OBSTRUCTIONS TO VISIBILITY.


SDZ001>005-009-010-012>017-302100-
NORTHWEST AND NORTH CENTRAL SOUTH DAKOTA

CITY           SKY/WX    TMP DP  RH WIND       PRES   REMARKS
BUFFALO          N/A     80  66  62 SE9       29.85F
FAITH            N/A     77  60  55 SE15      29.90S
MOBRIDGE       LGT RAIN  70  69  97 E9        29.91R FOG
$$

SDZ012>016-024>037-041>051-057-063-072>074-302100-
SOUTHWEST AND SOUTH CENTRAL SOUTH DAKOTA

CITY           SKY/WX    TMP DP  RH WIND       PRES   REMARKS
RAPID CTY ARPT PTSUNNY   85  66  53 VRB3      29.90F
PIERRE         CLOUDY    76  66  71 E10       29.88S
CUSTER         MOSUNNY   82  47  29 W7        30.08S
ELLSWORTH AFB  PTSUNNY   85  62  45 NE12      29.91S
PHILIP         CLOUDY    83  68  60 E13       29.85F
PINE RIDGE     PTSUNNY   89  60  37 W7        29.92F
SPEARFISH      FAIR      81  64  57 NW9       29.99S
WINNER         FAIR      81  59  47 SE16      29.90S
$$

SDZ004>011-016>023-039-040-302100-
NORTHEAST SOUTH DAKOTA

CITY           SKY/WX    TMP DP  RH WIND       PRES   REMARKS
ABERDEEN       CLOUDY    74  65  73 VRB3      29.90F
WATERTOWN      CLOUDY    72  62  71 SE6       29.94F
BROOKINGS      CLOUDY    75  63  64 E5        29.95S
SISSETON         N/A     70  60  70 S7        29.92F
$$

SDZ017-020-022-023-036>040-048>070-302100-
SOUTHEAST SOUTH DAKOTA

CITY           SKY/WX    TMP DP  RH WIND       PRES   REMARKS
SIOUX FALLS    CLOUDY    75  65  70 S5        29.92S
HURON          CLOUDY    72  67  84 NE3       29.91R
CHAMBERLAIN    CLOUDY    77  64  64 SE15      29.89F
MITCHELL       CLOUDY    72  69  90 NE6       29.91S
YANKTON        CLOUDY    72  66  83 SE6       29.91F
$$

ABBREVIATIONS USED IN REMARKS
   TC - TEMPERATURE IN CELSIUS
  WCI - WIND CHILL INDEX
   HX - HEAT INDEX
  VSB - VISIBILITY




USA.gov is the U.S. government's official web portal to all federal, state and local government web resources and services.